GLOBALSTAR M055 [-]

Last updated on Fri Dec 29 2023 00:02:56 GMT+0000 (Coordinated Universal Time)

1 25910U 99049D 23362.42213972 -.00000085 00000+0 83416-4 0 9993 2 25910 52.0020 95.9937 0007739 100.0144 260.1581 12.29392501102488
UTC large
Height (km)
Speed (km/s)
/
Latitude / Longitude
Inclination (degrees)
Orbital Period (minutes)
Azimuth
Elevation
Range (km)
Doppler Factor

Next 0 passes for location: London (51.5072 / 0.1276)

Sorry there are no passes over London.